Wind from 355

Air temperature -1.7° C
Dewpoint -4.8° C

Last reported at 2014-Apr-24 04:36 UTC.
Time now 2014-Apr-24 06:06 UTC

Location: N 60°28' E 022°40'.
View on Google Maps.

See reports from other nearby stations

Tides Stations Pressure Air Temp Water Temp Dewpoint Dewpoint depression Visibility Wind Speed Wind Dir Waves Ship positions

  
sailing weather and tide predictions

DW2380 Paimio FI weather

date/time (UTC)wind fromknots sea level pressurealtimeterstation pressurevisibilityair tempwater tempwave heightnotes
2014-Apr-24 05:36 355 2.8
2014-Apr-24 05:21 355 1.1
2014-Apr-24 05:06 355 -0.0
2014-Apr-24 04:51 355 -1.1
2014-Apr-24 04:36 355 -1.7
2014-Apr-24 04:21 355 -2.8
2014-Apr-24 04:06 355 -3.3
2014-Apr-24 03:51 355 -4.4
2014-Apr-24 03:36 355 -5.0
2014-Apr-24 03:21 355 -5.0
2014-Apr-24 03:05 350 0 gusting 3 -5.0
2014-Apr-24 02:50 350 -5.0
2014-Apr-24 02:35 350 -5.0
2014-Apr-24 02:20 350 -4.4
2014-Apr-24 02:05 350 -4.4
2014-Apr-24 01:50 350 -4.4
2014-Apr-24 01:35 350 0 gusting 2 -4.4
2014-Apr-24 01:20 350 1 gusting 2 -4.4
2014-Apr-24 01:05 350 0 gusting 2 -3.9
2014-Apr-24 00:50 350 0 gusting 2 -3.9
2014-Apr-24 00:34 350 0 gusting 2 -3.9
2014-Apr-24 00:19 350 -3.3
2014-Apr-24 00:04 350 -3.3
2014-Apr-23 23:49 350 -3.3
2014-Apr-23 23:34 350 -2.8
2014-Apr-23 23:19 350 -2.8
2014-Apr-23 23:04 350 -2.2
2014-Apr-23 22:49 350 -2.2
2014-Apr-23 22:34 350 -2.2
2014-Apr-23 22:19 350 -2.2
2014-Apr-23 22:04 350 -1.7
2014-Apr-23 21:49 350 -1.7
2014-Apr-23 21:34 350 -1.7
2014-Apr-23 21:19 350 -1.1
2014-Apr-23 21:04 350 -1.1
2014-Apr-23 20:49 350 -0.6
2014-Apr-23 20:34 350 -0.0
2014-Apr-23 20:19 350 0.6
2014-Apr-23 20:04 350 1.1
2014-Apr-23 19:48 350 2.2
2014-Apr-23 19:33 350 3.3
2014-Apr-23 19:18 350 3.9
2014-Apr-23 19:03 350 5.0
2014-Apr-23 18:48 350 5.6
2014-Apr-23 18:32 350 6.1
2014-Apr-23 18:17 350 1 gusting 5 6.7
2014-Apr-23 18:02 360 2 gusting 6 7.2
2014-Apr-23 17:47 005 3 gusting 6 7.8
2014-Apr-23 17:32 346 2 gusting 6 8.3
2014-Apr-23 17:17 360 2 gusting 8 8.3
2014-Apr-23 17:01 030 5 gusting 9 8.9
2014-Apr-23 16:46 017 6 gusting 9 9.4
2014-Apr-23 16:31 018 5 gusting 8 10.0
2014-Apr-23 16:16 011 2 gusting 10 10.6
2014-Apr-23 16:01 040 3 gusting 11 10.6
2014-Apr-23 15:46 011 6 gusting 11 11.1
2014-Apr-23 15:16 342 3 gusting 13 11.7
2014-Apr-23 15:01 049 4 gusting 11 11.7
2014-Apr-23 14:46 031 4 gusting 9 11.7
2014-Apr-23 14:31 005 0 gusting 9 11.7
2014-Apr-23 14:16 302 2 gusting 13 11.7
2014-Apr-23 14:01 351 5 gusting 12 11.7
2014-Apr-23 13:44 036 7 gusting 13 11.7
2014-Apr-23 13:29 009 6 gusting 11 11.7
2014-Apr-23 13:14 313 5 gusting 13 11.1
2014-Apr-23 12:59 313 6 gusting 19 11.1
2014-Apr-23 12:44 348 7 gusting 14 11.1
2014-Apr-23 12:29 342 2 gusting 11 11.1
2014-Apr-23 12:13 360 6 gusting 17 11.1
2014-Apr-23 11:58 306 6 gusting 14 11.1
2014-Apr-23 11:43 340 6 gusting 13 10.6
2014-Apr-23 11:28 355 7 gusting 15 10.6
2014-Apr-23 11:13 310 5 gusting 15 10.6
2014-Apr-23 10:58 348 7 gusting 13 10.6
2014-Apr-23 10:42 049 6 gusting 15 10.6
2014-Apr-23 10:27 024 10 gusting 17 10.6
2014-Apr-23 10:12 028 6 gusting 13 10.0
2014-Apr-23 09:57 013 6 gusting 11 9.4
2014-Apr-23 09:42 344 4 gusting 12 9.4
2014-Apr-23 09:27 308 5 gusting 12 9.4
2014-Apr-23 09:12 015 5 gusting 13 8.9
2014-Apr-23 08:57 360 6 gusting 13 8.9
2014-Apr-23 08:41 360 5 gusting 12 8.3
2014-Apr-23 08:26 338 9 gusting 15 8.3
2014-Apr-23 08:11 053 8 gusting 17 7.8
2014-Apr-23 07:56 360 8 gusting 13 7.8
2014-Apr-23 07:41 350 5 gusting 19 7.2
2014-Apr-23 07:26 046 6 gusting 15 7.2
2014-Apr-23 07:11 355 7 gusting 16 7.2
2014-Apr-23 06:56 346 9 gusting 16 6.7
2014-Apr-23 06:41 045 10 gusting 18 6.7
2014-Apr-23 06:26 340 6 gusting 13 6.1
2014-Apr-23 06:09 351 5 gusting 11 5.6
2014-Apr-23 05:54 331 6 gusting 10 5.6
2014-Apr-23 05:39 005 5 gusting 11 5.0
2014-Apr-23 05:24 005 6 gusting 13 3.9
2014-Apr-23 05:09 334 3 gusting 9 3.3
2014-Apr-23 04:54 318 4 gusting 8 2.8
2014-Apr-23 04:38 327 2 gusting 8 2.2
2014-Apr-23 04:23 336 4 gusting 8 1.7
2014-Apr-23 04:08 315 5 gusting 10 1.1
2014-Apr-23 03:53 325 6 gusting 10 1.1
2014-Apr-23 03:38 321 3 gusting 7 0.6
2014-Apr-23 03:22 327 2 gusting 6 0.6
2014-Apr-23 03:08 313 4 gusting 6 0.6
2014-Apr-23 02:53 325 1 gusting 4 0.6
2014-Apr-23 02:38 325 1.1
2014-Apr-23 02:23 321 1 gusting 6 1.1
2014-Apr-23 02:08 319 3 gusting 6 1.7
2014-Apr-23 01:52 311 3 gusting 6 2.2
2014-Apr-23 01:37 315 2 gusting 8 2.2
2014-Apr-23 01:22 319 4 gusting 7 2.8
2014-Apr-23 01:07 331 3 gusting 8 2.8
2014-Apr-23 00:52 328 3 gusting 7 2.8
2014-Apr-23 00:37 326 2 gusting 6 3.3
2014-Apr-23 00:22 339 1 gusting 4 3.9
2014-Apr-23 00:07 324 2 gusting 7 3.9
2014-Apr-22 23:52 306 4 gusting 11 4.4
2014-Apr-22 23:37 311 4 gusting 8 4.4
2014-Apr-22 23:22 330 3 gusting 7 5.0
2014-Apr-22 23:07 355 2 gusting 7 5.0
2014-Apr-22 22:52 340 2 gusting 8 5.6
2014-Apr-22 22:37 340 5 gusting 11 6.1
2014-Apr-22 22:22 336 4 gusting 10 6.1
2014-Apr-22 22:07 005 5 gusting 11 6.7
2014-Apr-22 21:52 351 6 gusting 13 7.2
2014-Apr-22 21:37 348 6 gusting 13 7.2
2014-Apr-22 21:21 355 7 gusting 16 7.8
2014-Apr-22 21:06 024 5 gusting 14 8.3
2014-Apr-22 20:51 351 6 gusting 14 8.3
2014-Apr-22 20:36 327 4 gusting 11 8.9
2014-Apr-22 20:21 334 6 gusting 14 9.4
2014-Apr-22 20:06 355 6 gusting 14 9.4
2014-Apr-22 19:51 360 6 gusting 13 9.4
2014-Apr-22 19:36 330 3 gusting 8 9.4
2014-Apr-22 19:21 331 1 gusting 9 10.0
2014-Apr-22 19:06 311 3 gusting 7 10.6
2014-Apr-22 18:51 326 3 gusting 7 11.1
2014-Apr-22 18:36 309 2 gusting 10 11.7
2014-Apr-22 18:21 315 3 gusting 6 11.7
2014-Apr-22 18:04 311 5 gusting 8 12.2
2014-Apr-22 17:49 314 2 gusting 10 12.8
2014-Apr-22 17:34 273 3 gusting 8 13.3
2014-Apr-22 17:19 294 6 gusting 12 13.9
2014-Apr-22 17:04 275 7 gusting 12 14.4
2014-Apr-22 16:48 275 8 gusting 14 15.0
2014-Apr-22 16:34 300 6 gusting 13 15.6
2014-Apr-22 16:18 297 6 gusting 12 16.1
2014-Apr-22 16:03 300 6 gusting 13 16.7
2014-Apr-22 15:48 325 6 gusting 10 17.2
2014-Apr-22 15:33 288 5 gusting 13 17.2
2014-Apr-22 15:18 311 6 gusting 12 17.2
2014-Apr-22 15:03 308 5 gusting 12 17.8
2014-Apr-22 14:48 312 6 gusting 16 17.8
2014-Apr-22 14:32 300 6 gusting 12 17.8
2014-Apr-22 14:17 333 6 gusting 13 17.8
2014-Apr-22 14:02 299 10 gusting 16 18.3
2014-Apr-22 13:47 323 3 gusting 11 18.9
2014-Apr-22 13:32 311 6 gusting 13 18.9
2014-Apr-22 13:16 265 4 gusting 17 18.9
2014-Apr-22 13:01 346 2 gusting 10 18.9
2014-Apr-22 12:46 294 5 gusting 13 18.9
2014-Apr-22 12:31 331 6 gusting 12 18.9
2014-Apr-22 12:16 313 5 gusting 9 18.9
2014-Apr-22 12:01 360 5 gusting 13 18.9
2014-Apr-22 11:46 302 6 gusting 14 18.9
2014-Apr-22 11:31 344 6 gusting 12 18.3
2014-Apr-22 11:16 279 7 gusting 14 18.3
2014-Apr-22 11:01 309 5 gusting 18 18.3
2014-Apr-22 10:46 300 6 gusting 13 18.3
2014-Apr-22 10:31 316 5 gusting 9 18.3
2014-Apr-22 10:16 348 5 gusting 12 18.3
2014-Apr-22 10:01 333 6 gusting 14 17.8
2014-Apr-22 09:44 331 2 gusting 10 17.8
2014-Apr-22 09:29 344 4 gusting 11 17.2
2014-Apr-22 09:14 343 6 gusting 12 17.2
2014-Apr-22 08:59 323 3 gusting 13 16.7
2014-Apr-22 08:44 005 6 gusting 10 16.1
2014-Apr-22 08:13 328 5 gusting 11 15.6
2014-Apr-22 07:58 314 4 gusting 9 15.0
2014-Apr-22 07:43 340 4 gusting 10 14.4
2014-Apr-22 07:28 335 6 gusting 11 13.3
2014-Apr-22 07:12 319 5 gusting 12 12.8
2014-Apr-22 06:58 321 5 gusting 10 12.2
2014-Apr-22 06:42 324 4 gusting 7 11.1
2014-Apr-22 06:27 323 3 gusting 8 10.6
2014-Apr-22 06:12 317 5 gusting 8 9.4